Location: Cerroniocc
(13.7547°S, 72.0222°W)
Time: 19:55:10
(UTC+00:00)

Cosmos 841 Rocket - Pass Details

Date: 05 July 2020
Orbit: 747 x 772 km, 74.0° (Epoch: 11 August)

Event Time Altitude Azimuth Distance (km) Brightness Sun altitude
Rises 23:02:46 0° 201° (SSW) 3,245 6.8 -7.5°
Reaches altitude 10° 23:05:13 10° 206° (SSW) 2,311 6.0 -8.0°
Maximum altitude 23:10:18 53° 281° (WNW) 932 4.4 -9.2°
Drops below altitude 10° 23:15:19 10° 358° (N) 2,275 6.3 -10.3°
Sets 23:17:43 0° 2° (N) 3,190 7.0 -10.9°
